FW2547 Weather Reports


time (UTC)temp
C
wind
direction
speed
KPH
gust
KPH
rain 1hr
cm
rain 24hr
cm
rain mn
cm
humidity
%
barometer
mb
20260507213011 27 207 9.7 19.3 0.00 0.00 0.00 16 1009.3
20260507211506 26 311 6.4 17.7 0.00 0.00 0.00 18 1009.4
20260507210006 26 161 9.7 17.7 0.00 0.00 0.00 17 1009.8
20260507204501 25 145 4.8 17.7 0.00 0.00 0.00 17 1009.9
20260507203101 26 130 9.7 19.3 0.00 0.00 0.00 18 1010.2
20260507201559 25 159 6.4 17.7 0.00 0.00 0.00 18 1010.5
20260507194552 25 36 3.2 17.7 0.00 0.00 0.00 19 1010.9
20260507193051 23 165 6.4 19.3 0.00 0.00 0.00 20 1011.2
20260507191552 23 43 8.0 19.3 0.00 0.00 0.00 20 1011.4
20260507190047 23 163 9.7 16.1 0.00 0.00 0.00 21 1011.7
20260507184541 23 134 9.7 17.7 0.00 0.00 0.00 22 1011.9
20260507183042 22 129 14.5 20.9 0.00 0.00 0.00 23 1012.2
20260507181535 22 137 4.8 22.5 0.00 0.00 0.00 25 1012.4
20260507180031 21 74 11.3 17.7 0.00 0.00 0.00 27 1012.6
20260507174539 21 86 9.7 19.3 0.00 0.00 0.00 28 1012.6
20260507173027 20 82 4.8 22.5 0.00 0.00 0.00 28 1012.9
20260507171520 20 52 8.0 27.4 0.00 0.00 0.00 29 1013.1
20260507170023 20 82 16.1 24.1 0.00 0.00 0.00 30 1013.4
20260507164511 19 65 16.1 22.5 0.00 0.00 0.00 31 1013.6
20260507163007 19 136 8.0 24.1 0.00 0.00 0.00 33 1013.7
20260507161504 18 61 12.9 27.4 0.00 0.00 0.00 34 1013.9
20260507160059 18 53 19.3 29.0 0.00 0.00 0.00 35 1014.1
20260507154654 17 76 16.1 27.4 0.00 0.00 0.00 35 1014.2
20260507153058 17 71 17.7 25.7 0.00 0.00 0.00 35 1014.2
20260507151545 17 57 16.1 25.7 0.00 0.00 0.00 37 1014.3
20260507150043 16 51 19.3 25.7 0.00 0.00 0.00 38 1014.4
20260507144536 16 74 17.7 27.4 0.00 0.00 0.00 39 1014.4
20260507143035 16 74 24.1 29.0 0.00 0.00 0.00 38 1014.6
20260507141528 15 65 19.3 29.0 0.00 0.00 0.00 39 1014.6
20260507140022 15 74 22.5 30.6 0.00 0.00 0.00 39 1014.5
20260507134519 15 71 20.9 27.4 0.00 0.00 0.00 38 1014.6
20260507133014 15 64 16.1 25.7 0.00 0.00 0.00 40 1014.4
20260507131513 14 46 22.5 30.6 0.00 0.00 0.00 41 1014.2
20260507130111 14 71 12.9 22.5 0.00 0.00 0.00 41 1014.2
20260507124605 13 64 16.1 24.1 0.00 0.00 0.00 41 1014.0
20260507123058 13 123 12.9 17.7 0.00 0.00 0.00 34 1013.7
20260507121605 13 156 4.8 11.3 0.00 0.00 0.00 30 1013.4
20260507120050 13 128 6.4 16.1 0.00 0.00 0.00 27 1013.3
20260507114601 14 78 11.3 19.3 0.00 0.00 0.00 25 1013.1
20260507113045 14 51 11.3 20.9 0.00 0.00 0.00 25 1013.0
20260507111542 15 40 19.3 30.6 0.00 0.00 0.00 25 1013.0
20260507110041 15 231 0.0 4.8 0.00 0.00 0.00 27 1012.5
20260507104539 15 173 3.2 8.0 0.00 0.00 0.00 27 1012.4
20260507103037 16 103 1.6 11.3 0.00 0.00 0.00 28 1012.5
20260507101538 15 60 3.2 9.7 0.00 0.00 0.00 28 1012.5
20260507100039 15 67 9.7 16.1 0.00 0.00 0.00 29 1012.7
20260507094537 15 66 6.4 8.0 0.00 0.00 0.00 29 1012.5
20260507093029 16 132 3.2 6.4 0.00 0.00 0.00 27 1012.5
20260507091525 16 132 1.6 4.8 0.00 0.00 0.00 25 1012.3
20260507090023 17 132 1.6 6.4 0.00 0.00 0.00 22 1012.4
20260507084519 17 132 1.6 6.4 0.00 0.00 0.00 21 1012.5
20260507083018 17 269 1.6 6.4 0.00 0.00 0.00 19 1012.5
20260507081533 17 250 0.0 3.2 0.00 0.00 0.00 19 1012.7
20260507080013 17 251 3.2 8.0 0.00 0.00 0.00 18 1012.8
20260507074522 18 270 6.4 9.7 0.00 0.00 0.00 18 1012.7
20260507073008 18 292 11.3 14.5 0.00 0.00 0.00 17 1012.6
20260507071507 18 286 4.8 8.0 0.00 0.00 0.00 18 1012.6
20260507070010 18 267 6.4 11.3 0.00 0.00 0.00 17 1012.5
20260507064501 19 290 3.2 8.0 0.00 0.00 0.00 18 1012.4
20260507063059 19 290 4.8 8.0 0.00 0.00 0.00 18 1012.4
20260507061601 20 290 6.4 12.9 0.00 0.00 0.00 18 1012.2
20260507060058 19 275 6.4 11.3 0.00 0.00 0.00 19 1012.1
20260507054636 20 262 3.2 9.7 0.00 0.00 0.00 19 1011.9
20260507053054 20 300 6.4 11.3 0.00 0.00 0.00 20 1011.6
20260507051552 20 292 6.4 8.0 0.00 0.00 0.00 20 1011.8
20260507050056 20 269 3.2 9.7 0.00 0.00 0.00 19 1011.8
20260507044556 20 300 3.2 6.4 0.00 0.00 0.00 20 1011.8
20260507043050 21 313 1.6 4.8 0.00 0.00 0.00 19 1011.7
20260507041559 22 313 3.2 9.7 0.00 0.00 0.00 18 1011.4
20260507040048 22 331 4.8 8.0 0.00 0.00 0.00 16 1011.2
20260507034556 22 330 4.8 14.5 0.00 0.00 0.00 17 1011.2
20260507033053 22 323 8.0 14.5 0.00 0.00 0.00 16 1011.0
20260507031602 23 336 4.8 9.7 0.00 0.00 0.00 16 1010.9
20260507030053 23 344 4.8 12.9 0.00 0.00 0.00 16 1010.7
20260507024546 23 338 4.8 14.5 0.00 0.00 0.00 16 1010.3
20260507023046 23 328 4.8 14.5 0.00 0.00 0.00 16 1010.1
20260507021544 23 310 11.3 17.7 0.00 0.00 0.00 16 1010.0
20260507020047 23 298 11.3 24.1 0.00 0.00 0.00 16 1009.7
20260507014550 24 301 19.3 27.4 0.00 0.00 0.00 16 1009.5
20260507013045 24 303 14.5 19.3 0.00 0.00 0.00 16 1009.4
20260507011543 24 320 12.9 25.7 0.00 0.00 0.00 16 1009.3
20260507010043 25 303 16.1 29.0 0.00 0.00 0.00 16 1009.0
20260507004539 25 331 19.3 27.4 0.00 0.00 0.00 16 1008.8
20260507003043 25 319 20.9 33.8 0.00 0.00 0.00 16 1008.7
20260507001541 25 306 22.5 35.4 0.00 0.00 0.00 16 1008.6
20260507000041 25 277 20.9 25.7 0.00 0.00 0.00 16 1008.6
20260506234537 25 334 14.5 30.6 0.00 0.00 0.00 16 1008.3
20260506233041 25 330 17.7 38.6 0.00 0.00 0.00 16 1008.3
20260506231535 25 304 19.3 41.8 0.00 0.00 0.00 16 1008.5
20260506230032 25 305 14.5 38.6 0.00 0.00 0.00 16 1008.5
20260506224531 25 321 12.9 33.8 0.00 0.00 0.00 16 1008.7
20260506223029 25 279 29.0 41.8 0.00 0.00 0.00 16 1008.8
20260506221526 24 304 25.7 37.0 0.00 0.00 0.00 16 1008.9
20260506220024 24 311 20.9 46.7 0.00 0.00 0.00 17 1008.9
20260506214522 24 309 20.9 38.6 0.00 0.00 0.00 17 1008.9